| time (UTC) | temp F | wind direction | speed MPH | gust MPH | rain 1hr in | rain 24hr in | rain mn in | humidity % | barometer mb |
| 20260509173301 | 81 | 310 | 4.0 | 7.0 | 0.00 | 0.00 | 0.00 | 58 | 1008.7 |
| 20260509172300 | 81 | 286 | 5.0 | 9.0 | 0.00 | 0.00 | 0.00 | 59 | 1008.7 |
| 20260509171259 | 80 | 288 | 5.0 | 10.0 | 0.00 | 0.00 | 0.00 | 59 | 1008.7 |
| 20260509170254 | 80 | 340 | 6.0 | 10.0 | 0.00 | 0.00 | 0.00 | 60 | 1008.9 |
| 20260509165253 | 80 | 294 | 6.0 | 11.0 | 0.00 | 0.00 | 0.00 | 61 | 1009.0 |
| 20260509164253 | 79 | 280 | 5.0 | 11.0 | 0.00 | 0.00 | 0.00 | 59 | 1009.1 |
| 20260509163254 | 79 | 301 | 5.0 | 11.0 | 0.00 | 0.00 | 0.00 | 61 | 1009.2 |
| 20260509162253 | 78 | 303 | 7.0 | 12.0 | 0.00 | 0.00 | 0.00 | 63 | 1009.2 |
| 20260509161253 | 77 | 342 | 6.0 | 12.0 | 0.00 | 0.00 | 0.00 | 62 | 1009.3 |
| 20260509160733 | 77 | 279 | 8.0 | 14.0 | 0.00 | 0.00 | 0.00 | 64 | 1009.1 |
| 20260509155254 | 77 | 292 | 8.0 | 12.0 | 0.00 | 0.00 | 0.00 | 64 | 1008.9 |
| 20260509154256 | 76 | 307 | 9.0 | 12.0 | 0.00 | 0.00 | 0.00 | 64 | 1008.9 |
| 20260509153248 | 76 | 298 | 7.0 | 14.0 | 0.00 | 0.00 | 0.00 | 66 | 1008.9 |
| 20260509152248 | 75 | 324 | 8.0 | 14.0 | 0.00 | 0.00 | 0.00 | 67 | 1008.9 |
| 20260509151248 | 74 | 344 | 7.0 | 14.0 | 0.00 | 0.00 | 0.00 | 68 | 1008.9 |
| 20260509150248 | 73 | 318 | 8.0 | 13.0 | 0.00 | 0.00 | 0.00 | 73 | 1009.0 |
| 20260509145248 | 73 | 320 | 6.0 | 13.0 | 0.00 | 0.00 | 0.00 | 73 | 1009.2 |
| 20260509143247 | 71 | 271 | 6.0 | 10.0 | 0.00 | 0.00 | 0.00 | 81 | 1009.3 |
| 20260509142246 | 70 | 279 | 5.0 | 10.0 | 0.00 | 0.00 | 0.00 | 81 | 1009.3 |
| 20260509141247 | 70 | 273 | 5.0 | 9.0 | 0.00 | 0.00 | 0.00 | 83 | 1009.3 |
| 20260509140241 | 70 | 284 | 6.0 | 9.0 | 0.00 | 0.00 | 0.00 | 82 | 1009.3 |
| 20260509135244 | 70 | 284 | 6.0 | 10.0 | 0.00 | 0.00 | 0.00 | 83 | 1009.3 |
| 20260509134242 | 69 | 281 | 7.0 | 10.0 | 0.00 | 0.00 | 0.00 | 83 | 1009.3 |
| 20260509133731 | 69 | 292 | 5.0 | 10.0 | 0.00 | 0.00 | 0.00 | 84 | 1009.2 |
| 20260509132723 | 68 | 287 | 5.0 | 10.0 | 0.00 | 0.00 | 0.00 | 84 | 1009.2 |
| 20260509131241 | 68 | 271 | 5.0 | 8.0 | 0.00 | 0.00 | 0.00 | 84 | 1009.0 |
| 20260509130245 | 67 | 301 | 4.0 | 8.0 | 0.00 | 0.00 | 0.00 | 84 | 1009.1 |
| 20260509125242 | 67 | 328 | 6.0 | 10.0 | 0.00 | 0.00 | 0.00 | 85 | 1008.9 |
| 20260509124242 | 67 | 298 | 5.0 | 9.0 | 0.00 | 0.00 | 0.00 | 85 | 1009.0 |
| 20260509123235 | 66 | 302 | 4.0 | 7.0 | 0.00 | 0.01 | 0.00 | 85 | 1009.0 |
| 20260509122639 | 66 | 321 | 4.0 | 8.0 | 0.00 | 0.02 | 0.00 | 84 | 1008.9 |
| 20260509122317 | 66 | 298 | 4.0 | 9.0 | 0.00 | 0.02 | 0.00 | 85 | 1008.9 |
| 20260509120237 | 66 | 326 | 4.0 | 8.0 | 0.00 | 0.03 | 0.00 | 84 | 1008.7 |
| 20260509115234 | 66 | 299 | 3.0 | 5.0 | 0.00 | 0.03 | 0.00 | 84 | 1008.7 |
| 20260509114235 | 66 | 298 | 3.0 | 6.0 | 0.00 | 0.03 | 0.00 | 84 | 1008.5 |
| 20260509113710 | 67 | 307 | 3.0 | 7.0 | 0.00 | 0.07 | 0.00 | 85 | 1008.2 |
| 20260509112235 | 67 | 300 | 3.0 | 7.0 | 0.00 | 0.07 | 0.00 | 85 | 1008.2 |
| 20260509111239 | 67 | 319 | 3.0 | 7.0 | 0.00 | 0.07 | 0.00 | 84 | 1008.0 |
| 20260509110230 | 68 | 308 | 4.0 | 9.0 | 0.00 | 0.07 | 0.00 | 84 | 1007.7 |
| 20260509105229 | 68 | 309 | 5.0 | 9.0 | 0.00 | 0.07 | 0.00 | 83 | 1007.8 |
| 20260509104230 | 69 | 314 | 4.0 | 8.0 | 0.00 | 0.07 | 0.00 | 82 | 1007.7 |
| 20260509103230 | 69 | 288 | 5.0 | 9.0 | 0.00 | 0.07 | 0.00 | 80 | 1007.9 |
| 20260509102228 | 70 | 298 | 4.0 | 8.0 | 0.00 | 0.07 | 0.00 | 78 | 1007.9 |
| 20260509101231 | 70 | 350 | 3.0 | 8.0 | 0.00 | 0.07 | 0.00 | 77 | 1007.6 |
| 20260509100230 | 70 | 342 | 2.0 | 5.0 | 0.00 | 0.09 | 0.00 | 78 | 1007.7 |
| 20260509095228 | 70 | 322 | 2.0 | 4.0 | 0.00 | 0.25 | 0.00 | 76 | 1007.6 |
| 20260509094230 | 70 | 338 | 1.0 | 5.0 | 0.00 | 0.26 | 0.00 | 76 | 1007.5 |
| 20260509093224 | 70 | 26 | 0.0 | 3.0 | 0.00 | 0.26 | 0.00 | 74 | 1007.0 |
| 20260509092714 | 71 | 355 | 1.0 | 7.0 | 0.00 | 0.26 | 0.00 | 74 | 1006.6 |
| 20260509091224 | 70 | 72 | 2.0 | 11.0 | 0.00 | 0.26 | 0.00 | 74 | 1006.3 |
| 20260509090223 | 69 | 347 | 2.0 | 13.0 | 0.00 | 0.26 | 0.00 | 80 | 1005.8 |
| 20260509085223 | 69 | 207 | 5.0 | 9.0 | 0.00 | 0.26 | 0.00 | 80 | 1005.2 |
| 20260509085145 | 69 | 184 | 5.0 | 11.0 | 0.00 | 0.26 | 0.00 | 80 | 1005.0 |
| 20260509083225 | 69 | 150 | 7.0 | 16.0 | 0.00 | 0.26 | 0.00 | 79 | 1005.0 |
| 20260509082223 | 70 | 227 | 6.0 | 19.0 | 0.00 | 0.26 | 0.00 | 74 | 1005.3 |
| 20260509081224 | 72 | 301 | 0.0 | 1.0 | 0.00 | 0.26 | 0.00 | 69 | 1004.2 |
| 20260509080707 | 73 | 301 | 1.0 | 4.0 | 0.00 | 0.26 | 0.00 | 64 | 1004.7 |
| 20260509075217 | 71 | 324 | 2.0 | 4.0 | 0.00 | 0.26 | 0.00 | 71 | 1005.8 |
| 20260509074216 | 69 | 256 | 5.0 | 9.0 | 0.00 | 0.26 | 0.00 | 82 | 1006.7 |
| 20260509073219 | 69 | 248 | 5.0 | 10.0 | 0.00 | 0.26 | 0.00 | 86 | 1007.6 |
| 20260509072700 | 69 | 200 | 6.0 | 10.0 | 0.00 | 0.26 | 0.00 | 88 | 1008.0 |
| 20260509071216 | 69 | 206 | 7.0 | 10.0 | 0.00 | 0.26 | 0.00 | 89 | 1008.4 |
| 20260509071135 | 69 | 219 | 8.0 | 11.0 | 0.00 | 0.26 | 0.00 | 89 | 1008.7 |
| 20260509065216 | 69 | 231 | 7.0 | 12.0 | 0.00 | 0.30 | 0.00 | 90 | 1009.2 |
| 20260509064220 | 69 | 217 | 5.0 | 8.0 | 0.00 | 0.37 | 0.00 | 89 | 1009.6 |
| 20260509063215 | 69 | 238 | 5.0 | 9.0 | 0.00 | 0.43 | 0.00 | 89 | 1009.6 |
| 20260509062211 | 69 | 289 | 4.0 | 8.0 | 0.00 | 0.43 | 0.00 | 89 | 1009.8 |
| 20260509061211 | 69 | 275 | 3.0 | 4.0 | 0.00 | 0.43 | 0.00 | 88 | 1009.8 |
| 20260509060212 | 69 | 257 | 2.0 | 4.0 | 0.00 | 0.43 | 0.00 | 87 | 1009.7 |
| 20260509055210 | 69 | 331 | 0.0 | 3.0 | 0.00 | 0.43 | 0.00 | 87 | 1009.7 |
| 20260509054212 | 70 | 348 | 1.0 | 4.0 | 0.00 | 0.43 | 0.00 | 87 | 1009.2 |
| 20260509053209 | 70 | 355 | 1.0 | 5.0 | 0.00 | 0.43 | 0.00 | 87 | 1009.6 |
| 20260509052209 | 70 | 349 | 3.0 | 5.0 | 0.00 | 0.43 | 0.00 | 86 | 1009.8 |
| 20260509051208 | 70 | 344 | 3.0 | 6.0 | 0.00 | 0.43 | 0.00 | 86 | 1009.7 |
| 20260509050645 | 71 | 344 | 1.0 | 5.0 | 0.00 | 0.43 | 0.00 | 85 | 1009.8 |
| 20260509045209 | 71 | 163 | 1.0 | 5.0 | 0.00 | 0.43 | 0.43 | 85 | 1008.7 |
| 20260509044209 | 71 | 162 | 2.0 | 7.0 | 0.00 | 0.43 | 0.43 | 85 | 1008.4 |
| 20260509043208 | 71 | 160 | 2.0 | 7.0 | 0.00 | 0.43 | 0.43 | 85 | 1008.4 |
| 20260509042703 | 71 | 164 | 2.0 | 7.0 | 0.00 | 0.43 | 0.43 | 84 | 1008.3 |
| 20260509041209 | 71 | 144 | 1.0 | 2.0 | 0.00 | 0.43 | 0.43 | 84 | 1008.2 |
| 20260509040209 | 71 | 152 | 0.0 | 3.0 | 0.00 | 0.43 | 0.43 | 83 | 1008.3 |
| 20260509035209 | 71 | 71 | 0.0 | 3.0 | 0.00 | 0.43 | 0.43 | 82 | 1008.3 |
| 20260509034202 | 71 | 75 | 1.0 | 3.0 | 0.00 | 0.43 | 0.43 | 83 | 1008.4 |
| 20260509033202 | 71 | 76 | 1.0 | 4.0 | 0.00 | 0.43 | 0.43 | 82 | 1008.4 |
| 20260509032203 | 72 | 82 | 1.0 | 4.0 | 0.00 | 0.43 | 0.43 | 82 | 1008.1 |
| 20260509031203 | 72 | 82 | 1.0 | 6.0 | 0.00 | 0.43 | 0.43 | 81 | 1007.6 |
| 20260509030201 | 72 | 110 | 2.0 | 6.0 | 0.00 | 0.43 | 0.43 | 81 | 1007.0 |
| 20260509025202 | 72 | 148 | 1.0 | 6.0 | 0.00 | 0.43 | 0.43 | 81 | 1006.6 |
| 20260509024637 | 72 | 134 | 1.0 | 4.0 | 0.00 | 0.43 | 0.43 | 81 | 1006.7 |
| 20260509023201 | 72 | 154 | 2.0 | 6.0 | 0.00 | 0.43 | 0.43 | 80 | 1006.3 |
| 20260509022200 | 72 | 165 | 1.0 | 5.0 | 0.00 | 0.43 | 0.43 | 80 | 1006.3 |
| 20260509021204 | 72 | 165 | 2.0 | 5.0 | 0.00 | 0.43 | 0.43 | 80 | 1006.3 |
| 20260509020205 | 72 | 138 | 3.0 | 8.0 | 0.00 | 0.43 | 0.43 | 80 | 1006.0 |
| 20260509015159 | 72 | 140 | 4.0 | 11.0 | 0.00 | 0.43 | 0.43 | 79 | 1006.1 |
| 20260509014200 | 72 | 165 | 2.0 | 8.0 | 0.00 | 0.43 | 0.43 | 79 | 1006.4 |
| 20260509013158 | 72 | 167 | 1.0 | 5.0 | 0.00 | 0.43 | 0.43 | 79 | 1006.7 |
| 20260509012648 | 72 | 185 | 0.0 | 2.0 | 0.00 | 0.43 | 0.43 | 79 | 1006.7 |
| 20260509011157 | 72 | 185 | 2.0 | 7.0 | 0.00 | 0.43 | 0.43 | 79 | 1006.6 |
| 20260509010154 | 72 | 167 | 2.0 | 8.0 | 0.00 | 0.43 | 0.43 | 79 | 1006.3 |
| 20260509005152 | 72 | 169 | 5.0 | 13.0 | 0.00 | 0.43 | 0.43 | 79 | 1006.2 |
| 20260509004644 | 72 | 167 | 5.0 | 10.0 | 0.00 | 0.43 | 0.43 | 78 | 1006.1 |
| 20260509003153 | 72 | 190 | 7.0 | 13.0 | 0.00 | 0.43 | 0.43 | 78 | 1006.1 |
| 20260509002152 | 73 | 185 | 6.0 | 12.0 | 0.00 | 0.43 | 0.43 | 78 | 1006.1 |
| 20260509001150 | 73 | 202 | 7.0 | 13.0 | 0.00 | 0.43 | 0.43 | 77 | 1006.1 |
| 20260509001139 | 73 | 168 | 6.0 | 11.0 | 0.00 | 0.43 | 0.43 | 77 | 1006.2 |
| 20260508235632 | 73 | 215 | 4.0 | 8.0 | 0.00 | 0.43 | 0.43 | 77 | 1006.3 |
| 20260508234152 | 73 | 172 | 5.0 | 10.0 | 0.00 | 0.43 | 0.43 | 76 | 1006.4 |
| 20260508233151 | 73 | 184 | 6.0 | 12.0 | 0.00 | 0.43 | 0.43 | 76 | 1006.4 |
| 20260508232628 | 73 | 167 | 5.0 | 11.0 | 0.00 | 0.43 | 0.43 | 75 | 1006.4 |
| 20260508231150 | 73 | 166 | 6.0 | 11.0 | 0.00 | 0.43 | 0.43 | 75 | 1006.4 |
| 20260508230152 | 73 | 192 | 6.0 | 12.0 | 0.00 | 0.43 | 0.43 | 73 | 1006.5 |
| 20260508225150 | 74 | 152 | 4.0 | 10.0 | 0.00 | 0.43 | 0.43 | 73 | 1006.4 |
| 20260508225118 | 74 | 181 | 4.0 | 10.0 | 0.00 | 0.43 | 0.43 | 72 | 1006.5 |
| 20260508223148 | 74 | 163 | 3.0 | 9.0 | 0.00 | 0.43 | 0.43 | 71 | 1006.6 |
| 20260508222150 | 75 | 181 | 4.0 | 12.0 | 0.00 | 0.43 | 0.43 | 70 | 1006.6 |
| 20260508221629 | 75 | 132 | 3.0 | 9.0 | 0.00 | 0.43 | 0.43 | 70 | 1006.6 |
| 20260508220148 | 75 | 131 | 4.0 | 10.0 | 0.00 | 0.43 | 0.43 | 69 | 1006.5 |
| 20260508215146 | 75 | 185 | 4.0 | 10.0 | 0.00 | 0.43 | 0.43 | 68 | 1006.6 |
| 20260508214148 | 76 | 165 | 4.0 | 14.0 | 0.00 | 0.43 | 0.43 | 67 | 1006.7 |
| 20260508213144 | 75 | 163 | 3.0 | 10.0 | 0.00 | 0.43 | 0.43 | 66 | 1006.7 |
| 20260508212143 | 75 | 157 | 3.0 | 11.0 | 0.00 | 0.43 | 0.43 | 65 | 1006.9 |
| 20260508211143 | 75 | 167 | 3.0 | 12.0 | 0.00 | 0.43 | 0.43 | 66 | 1007.1 |
| 20260508210142 | 75 | 138 | 6.0 | 16.0 | 0.00 | 0.43 | 0.43 | 66 | 1007.2 |
| 20260508205637 | 75 | 138 | 4.0 | 10.0 | 0.00 | 0.43 | 0.43 | 66 | 1007.5 |
| 20260508204142 | 74 | 152 | 2.0 | 9.0 | 0.00 | 0.43 | 0.43 | 66 | 1007.7 |
| 20260508203142 | 74 | 140 | 2.0 | 10.0 | 0.00 | 0.43 | 0.43 | 66 | 1007.6 |
| 20260508202140 | 74 | 148 | 3.0 | 9.0 | 0.00 | 0.43 | 0.43 | 66 | 1007.9 |
| 20260508201141 | 73 | 186 | 3.0 | 11.0 | 0.00 | 0.43 | 0.43 | 68 | 1008.5 |
| 20260508200633 | 72 | 162 | 4.0 | 8.0 | 0.00 | 0.43 | 0.43 | 71 | 1008.8 |
| 20260508195625 | 71 | 184 | 6.0 | 12.0 | 0.00 | 0.43 | 0.43 | 70 | 1009.0 |
| 20260508194134 | 71 | 181 | 8.0 | 15.0 | 0.00 | 0.43 | 0.43 | 68 | 1009.3 |
| 20260508193135 | 72 | 173 | 6.0 | 14.0 | 0.00 | 0.43 | 0.43 | 67 | 1009.2 |
| 20260508192134 | 73 | 166 | 5.0 | 10.0 | 0.00 | 0.43 | 0.43 | 67 | 1009.1 |
| 20260508191136 | 73 | 161 | 3.0 | 10.0 | 0.00 | 0.43 | 0.43 | 67 | 1009.1 |
| 20260508190137 | 72 | 164 | 5.0 | 14.0 | 0.00 | 0.43 | 0.43 | 69 | 1009.1 |
| 20260508185136 | 72 | 151 | 6.0 | 10.0 | 0.00 | 0.43 | 0.43 | 68 | 1009.3 |
| 20260508184134 | 72 | 175 | 6.0 | 10.0 | 0.00 | 0.43 | 0.43 | 67 | 1009.3 |
| 20260508183136 | 73 | 184 | 4.0 | 9.0 | 0.00 | 0.43 | 0.43 | 66 | 1009.4 |
| 20260508182132 | 73 | 187 | 3.0 | 9.0 | 0.00 | 0.43 | 0.43 | 66 | 1009.6 |
| 20260508181613 | 72 | 130 | 3.0 | 10.0 | 0.00 | 0.43 | 0.43 | 67 | 1009.7 |
| 20260508180131 | 71 | 186 | 5.0 | 12.0 | 0.00 | 0.43 | 0.43 | 67 | 1009.9 |
| 20260508175133 | 71 | 194 | 7.0 | 16.0 | 0.00 | 0.43 | 0.43 | 67 | 1010.1 |
| 20260508174130 | 70 | 142 | 7.0 | 14.0 | 0.00 | 0.43 | 0.43 | 67 | 1010.2 |